Home   Weather   Böblingen   Past weeks

Flag for Germany Past Weather in Böblingen, Baden-Württemberg, Germany — Yesterday and Last 2 Weeks

Now
72 °F

Passing clouds.


Feels Like: 77 °F
Forecast: 56 / 79 °F
Wind: 6 mph from Southwest

Location: Stuttgart-Echterdingen

Current Time: Jul 28, 2017 at 5:14:08 pm

Latest Report: Jul 28, 2017 at 4:20 pm


Visibility: N/A

Pressure: 30.01 "Hg

Humidity: 50%

Dew Point: 52 °F

Location of BöblingenLocation

Past Weather in Böblingen — Graph

°F

Böblingen Temperature Yesterday

Maximum temperature yesterday: 72 °F (at 1:50 pm)
Minimum temperature yesterday: 55 °F (at 12:20 am)
Average temperature yesterday: 63 °F

High & Low Weather Summary for the Past Weeks

 TemperatureHumidityPressure
High91 °F (Jul 19, 3:20 pm)100% (Jul 15, 2:50 am)30.30 "Hg (Jul 15, 2:50 am)
Low50 °F (Jul 16, 3:50 am)29% (Jul 19, 4:20 pm)29.74 "Hg (Jul 26, 12:50 am)
Average66 °F72%29.99 "Hg
* Reported Jul 13 4:20 pm — Jul 28 4:20 pm, Böblingen. Weather by CustomWeather, © 2017

Note: Actual official high and low records may vary slightly from our data, if they occured in-between our weather recording intervals... More about our weather records

Advertising

Böblingen Weather History for the Previous 24 Hours

Scroll right to see more
 ConditionsComfort  
Time TempWeatherWind HumidityBarometerVisibility
4:20 pm
Fri, Jul 28
72 °FPassing clouds.6 mph50%30.01 "HgN/A
3:50 pm73 °FPassing clouds.9 mph44%30.01 "HgN/A
3:20 pm72 °FPassing clouds.10 mph47%30.01 "HgN/A
2:50 pm72 °FPassing clouds.9 mph47%30.01 "HgN/A
2:20 pm72 °FSunny.7 mph44%30.01 "Hg10 mi
1:50 pm70 °FScattered clouds.9 mph50%30.01 "HgN/A
1:20 pm70 °FScattered clouds.8 mph50%30.01 "HgN/A
12:50 pm70 °FBroken clouds.8 mph50%30.01 "HgN/A
12:20 pm68 °FScattered clouds.7 mph56%30.01 "HgN/A
11:50 am68 °FPartly sunny.10 mph53%30.01 "HgN/A
11:20 am68 °FBroken clouds.10 mph56%30.01 "HgN/A
10:50 am66 °FBroken clouds.10 mph56%29.98 "HgN/A
10:20 am66 °FScattered clouds.10 mph64%29.98 "HgN/A
9:50 am66 °FPartly sunny.9 mph64%29.98 "HgN/A
9:20 am64 °FScattered clouds.9 mph73%29.98 "HgN/A
8:50 am63 °FScattered clouds.7 mph83%29.98 "HgN/A
8:20 am61 °FPartly sunny.7 mph83%29.95 "HgN/A
7:50 am61 °FPartly sunny.5 mph88%29.95 "HgN/A
7:20 am59 °FPartly sunny.7 mph94%29.95 "HgN/A
6:50 am59 °FPartly sunny.5 mph94%29.95 "HgN/A
6:20 am59 °FBroken clouds.3 mph94%29.95 "HgN/A
5:50 am59 °FPassing clouds.3 mph94%29.92 "HgN/A
5:33 am59 °FPassing clouds.5 mph94%29.92 "HgN/A
5:20 am59 °FPartly cloudy.5 mph94%29.92 "HgN/A
4:50 am59 °FPartly cloudy.7 mph94%29.92 "HgN/A
4:20 am61 °FPartly cloudy.3 mph94%29.89 "HgN/A
3:50 am59 °FPassing clouds.6 mph94%29.89 "HgN/A
3:20 am61 °FPassing clouds.3 mph94%29.89 "HgN/A
2:50 am61 °FPartly cloudy.5 mph88%29.89 "HgN/A
2:20 am61 °FPartly cloudy.5 mph94%29.89 "HgN/A
1:50 am61 °FPassing clouds.6 mph94%29.89 "HgN/A
1:20 am61 °FPassing clouds.5 mph88%29.89 "HgN/A
12:50 am63 °FScattered showers. Partly cloudy.3 mph94%29.86 "HgN/A
12:31 am63 °FSprinkles. Partly cloudy.6 mph94%29.86 "HgN/A
12:20 am63 °FRain showers. Passing clouds.5 mph94%29.86 "Hg6 mi
12:02 am63 °FSprinkles. Partly cloudy.3 mph94%29.86 "HgN/A
11:50 pm
Thu, Jul 27
63 °FRain showers. Passing clouds.5 mph94%29.86 "Hg6 mi
11:33 pm63 °FLots of rain. Passing clouds.3 mph94%29.86 "Hg3 mi
11:20 pm63 °FLight rain. Passing clouds.3 mph94%29.86 "HgN/A
10:56 pm64 °FSprinkles. Partly cloudy.5 mph88%29.86 "HgN/A
10:50 pm64 °FRain showers. Partly cloudy.5 mph83%29.86 "HgN/A
10:20 pm66 °FPartly cloudy.5 mph78%29.86 "HgN/A
9:50 pm66 °FPartly cloudy.5 mph78%29.83 "HgN/A
9:20 pm66 °FPartly cloudy.3 mph78%29.83 "HgN/A
8:50 pm68 °FPartly sunny.7 mph73%29.83 "HgN/A
8:20 pm68 °FBroken clouds.6 mph73%29.83 "HgN/A
7:50 pm70 °FBroken clouds.5 mph69%29.83 "HgN/A
7:20 pm70 °FBroken clouds.3 mph69%29.83 "HgN/A
6:50 pm70 °FPartly sunny.5 mph69%29.83 "HgN/A
6:20 pm70 °FBroken clouds.8 mph69%29.83 "HgN/A
5:50 pm70 °FBroken clouds.10 mph69%29.83 "HgN/A
5:20 pm70 °FScattered showers. Broken clouds.10 mph69%29.86 "HgN/A
Weather by CustomWeather, © 2017

See weather overviewHow to use our weather pages